Tracking 25710 objects as of 5-Jul-2022
HD Live streaming from Space Station
objects crossing your sky now

STARLINK-2645

Track STARLINK-2645 now!
10-day predictions
STARLINK-2645 is classified as:


NORAD ID: 48444
Int'l Code: 2021-040S
Perigee: 553.3 km
Apogee: 555.4 km
Inclination: 53.1 °
Period: 95.6 minutes
Semi major axis: 6925 km
RCS: Unknown
Launch date: May 9, 2021
Source: United States (US)
Launch site: AIR FORCE EASTERN TEST RANGE (AFETR)
aabbcc
Your satellite tracking list
Your tracking list is empty




NASA's NSSDC Master Catalog

Two Line Element Set (TLE):
1 48444U 21040S   22185.47836779 -.00002199  00000-0 -12879-3 0  9993
2 48444  53.0551  96.0240 0001505  81.0781 279.0379 15.06390060 64021
Source of the keplerian elements: AFSPC